When you browse on this site, cookies collect data to enhance your experience and personalize the content and advertising you see.
Visit our Privacy Policy to learn more. By continuing to use the site, you agree to this use of cookies and data.
  • în România
  • Lista ţărilor
  • Pe 7 zile
  • Temperatura apei
  • Meteo pe hartă
  • Widget-uri
  • user-avatar
    Intrare

    Meteo pe oră la Annaba

    Astăzi, 7 Iunie, Duminică

    Timp Temperatura Precipitaţii Vânt Presiune Umiditate
    00:00 +21°C° 0 mm 3 m/s 756 mmHg 53%
    01:00 +21°C° 0 mm 3 m/s 755 mmHg 54%
    02:00 +21°C° 0 mm 2 m/s 755 mmHg 54%
    03:00 +23°C° 0 mm 2 m/s 755 mmHg 54%
    04:00 +23°C° 0 mm 2 m/s 754 mmHg 54%
    05:00 +24°C° 0 mm 2 m/s 754 mmHg 51%
    06:00 +25°C° 0 mm 3 m/s 754 mmHg 49%
    07:00 +26°C° 0 mm 3 m/s 755 mmHg 46%
    08:00 +28°C° 0 mm 3 m/s 755 mmHg 42%
    09:00 +30°C° 0 mm 4 m/s 755 mmHg 38%
    10:00 +33°C° 0 mm 4 m/s 755 mmHg 33%
    11:00 +33°C° 0.1 mm 5 m/s 755 mmHg 35%
    12:00 +32°C° 0.1 mm 6 m/s 755 mmHg 37%
    13:00 +32°C° 0.1 mm 7 m/s 755 mmHg 39%
    14:00 +30°C° 0.1 mm 7 m/s 755 mmHg 42%
    15:00 +29°C° 0.1 mm 6 m/s 755 mmHg 46%
    16:00 +28°C° 0.1 mm 5 m/s 755 mmHg 49%
    17:00 +28°C° 0.1 mm 4 m/s 755 mmHg 53%
    18:00 +27°C° 0.1 mm 4 m/s 756 mmHg 57%
    19:00 +26°C° 0.1 mm 3 m/s 756 mmHg 61%
    20:00 +24°C° 0.1 mm 3 m/s 756 mmHg 66%
    21:00 +23°C° 0.1 mm 2 m/s 757 mmHg 71%
    22:00 +21°C° 0.1 mm 2 m/s 757 mmHg 76%
    23:00 +21°C° 0 mm 2 m/s 757 mmHg 75%

    Mâine, 8 Iunie, Luni

    Timp Temperatura Precipitaţii Vânt Presiune Umiditate
    00:00 +21°C° 0 mm 2 m/s 757 mmHg 75%
    01:00 +21°C° 0 mm 2 m/s 756 mmHg 74%
    02:00 +20°C° 0 mm 2 m/s 756 mmHg 75%
    03:00 +20°C° 0 mm 2 m/s 756 mmHg 75%
    04:00 +20°C° 0 mm 3 m/s 756 mmHg 75%
    05:00 +21°C° 0 mm 2 m/s 756 mmHg 70%
    06:00 +23°C° 0 mm 2 m/s 756 mmHg 66%
    07:00 +24°C° 0 mm 2 m/s 756 mmHg 62%
    08:00 +26°C° 0 mm 3 m/s 756 mmHg 56%
    09:00 +27°C° 0 mm 4 m/s 756 mmHg 50%
    10:00 +29°C° 0 mm 4 m/s 756 mmHg 43%
    11:00 +29°C° 0 mm 5 m/s 756 mmHg 44%
    12:00 +29°C° 0 mm 5 m/s 756 mmHg 45%
    13:00 +29°C° 0 mm 6 m/s 756 mmHg 46%
    14:00 +28°C° 0.1 mm 5 m/s 755 mmHg 51%
    15:00 +28°C° 0.1 mm 4 m/s 755 mmHg 55%
    16:00 +27°C° 0.1 mm 4 m/s 755 mmHg 59%
    17:00 +26°C° 0.3 mm 3 m/s 755 mmHg 63%
    18:00 +25°C° 0.3 mm 2 m/s 756 mmHg 67%
    19:00 +24°C° 0.3 mm 1 m/s 756 mmHg 71%
    20:00 +23°C° 0.2 mm 1 m/s 757 mmHg 76%
    21:00 +23°C° 0.2 mm 1 m/s 757 mmHg 80%
    22:00 +22°C° 0.2 mm 1 m/s 758 mmHg 85%
    23:00 +21°C° 0.1 mm 1 m/s 758 mmHg 85%

    Poimâine, 9 Iunie, Marţi

    Timp Temperatura Precipitaţii Vânt Presiune Umiditate
    00:00 +20°C° 0.1 mm 2 m/s 758 mmHg 86%
    01:00 +20°C° 0.1 mm 2 m/s 757 mmHg 86%
    02:00 +19°C° 0 mm 2 m/s 757 mmHg 86%
    03:00 +19°C° 0 mm 2 m/s 757 mmHg 86%
    04:00 +19°C° 0 mm 2 m/s 757 mmHg 86%
    05:00 +20°C° 0 mm 2 m/s 757 mmHg 82%
    06:00 +22°C° 0 mm 1 m/s 757 mmHg 78%
    07:00 +23°C° 0 mm 1 m/s 757 mmHg 74%
    08:00 +24°C° 0 mm 2 m/s 758 mmHg 68%
    09:00 +25°C° 0 mm 2 m/s 758 mmHg 62%
    10:00 +26°C° 0 mm 3 m/s 758 mmHg 56%
    11:00 +27°C° 0 mm 3 m/s 758 mmHg 55%
    12:00 +27°C° 0 mm 4 m/s 758 mmHg 55%
    13:00 +27°C° 0 mm 4 m/s 758 mmHg 54%
    14:00 +27°C° 0 mm 4 m/s 758 mmHg 56%
    15:00 +26°C° 0 mm 4 m/s 758 mmHg 57%
    16:00 +26°C° 0 mm 5 m/s 758 mmHg 59%
    17:00 +25°C° 0 mm 4 m/s 758 mmHg 62%
    18:00 +23°C° 0 mm 4 m/s 758 mmHg 66%
    19:00 +22°C° 0 mm 3 m/s 759 mmHg 70%
    20:00 +21°C° 0 mm 3 m/s 760 mmHg 74%
    21:00 +20°C° 0 mm 2 m/s 760 mmHg 78%
    22:00 +20°C° 0 mm 1 m/s 761 mmHg 82%
    23:00 +20°C° 0 mm 1 m/s 761 mmHg 83%

    10 Iunie, Miercuri

    Timp Temperatura Precipitaţii Vânt Presiune Umiditate
    00:00 +20°C° 0 mm 1 m/s 761 mmHg 84%
    01:00 +19°C° 0 mm 1 m/s 761 mmHg 84%
    02:00 +19°C° 0 mm 1 m/s 761 mmHg 86%
    03:00 +17°C° 0 mm 0 m/s 760 mmHg 87%
    04:00 +16°C° 0 mm 0 m/s 760 mmHg 88%
    05:00 +17°C° 0 mm 0 m/s 760 mmHg 84%
    06:00 +20°C° 0 mm 1 m/s 760 mmHg 80%
    07:00 +21°C° 0 mm 1 m/s 760 mmHg 76%
    08:00 +23°C° 0 mm 1 m/s 760 mmHg 69%
    09:00 +24°C° 0 mm 1 m/s 760 mmHg 62%
    10:00 +26°C° 0 mm 1 m/s 760 mmHg 55%
    11:00 +26°C° 0 mm 2 m/s 760 mmHg 52%
    12:00 +27°C° 0 mm 3 m/s 760 mmHg 49%
    13:00 +27°C° 0 mm 4 m/s 760 mmHg 45%
    14:00 +27°C° 0 mm 4 m/s 760 mmHg 46%
    15:00 +27°C° 0 mm 4 m/s 760 mmHg 46%
    16:00 +26°C° 0 mm 4 m/s 759 mmHg 47%
    17:00 +25°C° 0 mm 4 m/s 759 mmHg 50%
    18:00 +24°C° 0 mm 3 m/s 760 mmHg 53%
    19:00 +23°C° 0 mm 2 m/s 760 mmHg 55%
    20:00 +21°C° 0 mm 2 m/s 760 mmHg 61%
    21:00 +21°C° 0 mm 1 m/s 761 mmHg 67%
    22:00 +20°C° 0 mm 1 m/s 761 mmHg 73%
    23:00 +19°C° 0 mm 1 m/s 761 mmHg 73%

    11 Iunie, Joi

    Timp Temperatura Precipitaţii Vânt Presiune Umiditate
    00:00 +19°C° 0 mm 1 m/s 760 mmHg 74%
    01:00 +19°C° 0 mm 1 m/s 760 mmHg 75%
    02:00 +18°C° 0 mm 1 m/s 759 mmHg 74%
    03:00 +18°C° 0 mm 1 m/s 759 mmHg 73%
    04:00 +18°C° 0 mm 1 m/s 759 mmHg 73%
    05:00 +19°C° 0 mm 1 m/s 759 mmHg 67%
    06:00 +20°C° 0 mm 1 m/s 759 mmHg 61%
    07:00 +22°C° 0 mm 1 m/s 759 mmHg 55%
    08:00 +24°C° 0 mm 1 m/s 758 mmHg 48%
    09:00 +26°C° 0 mm 1 m/s 758 mmHg 41%
    10:00 +28°C° 0 mm 1 m/s 758 mmHg 34%
    11:00 +28°C° 0 mm 1 m/s 758 mmHg 33%
    12:00 +29°C° 0 mm 2 m/s 758 mmHg 31%
    13:00 +30°C° 0 mm 3 m/s 757 mmHg 30%
    14:00 +30°C° 0 mm 3 m/s 757 mmHg 30%
    15:00 +30°C° 0 mm 3 m/s 757 mmHg 31%
    16:00 +30°C° 0 mm 3 m/s 756 mmHg 32%
    17:00 +28°C° 0 mm 3 m/s 756 mmHg 37%
    18:00 +27°C° 0 mm 3 m/s 756 mmHg 41%
    19:00 +26°C° 0 mm 3 m/s 756 mmHg 46%
    20:00 +25°C° 0 mm 3 m/s 756 mmHg 48%
    21:00 +23°C° 0 mm 2 m/s 756 mmHg 50%
    22:00 +21°C° 0 mm 2 m/s 757 mmHg 52%
    23:00 +21°C° 0 mm 2 m/s 756 mmHg 52%

    12 Iunie, Vineri

    Timp Temperatura Precipitaţii Vânt Presiune Umiditate
    00:00 +21°C° 0 mm 2 m/s 756 mmHg 51%
    01:00 +21°C° 0 mm 2 m/s 755 mmHg 51%
    02:00 +21°C° 0 mm 2 m/s 755 mmHg 50%
    03:00 +21°C° 0 mm 2 m/s 754 mmHg 50%
    04:00 +21°C° 0 mm 2 m/s 754 mmHg 50%
    05:00 +23°C° 0 mm 2 m/s 754 mmHg 48%
    06:00 +24°C° 0 mm 2 m/s 754 mmHg 46%
    07:00 +26°C° 0 mm 2 m/s 754 mmHg 45%
    08:00 +28°C° 0 mm 2 m/s 754 mmHg 41%
    09:00 +31°C° 0 mm 2 m/s 754 mmHg 37%
    10:00 +34°C° 0 mm 2 m/s 754 mmHg 32%
    11:00 +34°C° 0 mm 3 m/s 754 mmHg 31%
    12:00 +34°C° 0 mm 4 m/s 753 mmHg 29%
    13:00 +34°C° 0 mm 5 m/s 753 mmHg 28%
    14:00 +34°C° 0 mm 5 m/s 753 mmHg 28%
    15:00 +33°C° 0 mm 5 m/s 753 mmHg 29%
    16:00 +32°C° 0 mm 4 m/s 753 mmHg 29%
    17:00 +29°C° 0 mm 4 m/s 754 mmHg 34%
    18:00 +28°C° 0 mm 4 m/s 754 mmHg 38%
    19:00 +26°C° 0 mm 4 m/s 754 mmHg 43%
    20:00 +25°C° 0.1 mm 4 m/s 755 mmHg 52%
    21:00 +22°C° 0.1 mm 4 m/s 756 mmHg 61%
    22:00 +20°C° 0.1 mm 4 m/s 756 mmHg 71%
    23:00 +20°C° 0.2 mm 3 m/s 756 mmHg 73%
    Arată mai mult